Terug naar catalogus

CZ-6A DEB

ActiefPO
NORAD 55215·DEBRIS·🇨🇳 China

Gelanceerd Nov 11, 2022 vanaf Taiyuan Satellite Launch Center

Loading…

Volgende Passages (komende 24 uur)

TLE

VersSource: Space-Track

Epoch: Sep 14, 2026, 15:26 UTC

1 55215U 22151WG  26257.64324548  .00014107  00000-0  17895-2 0  9992
2 55215  98.6319 327.5497 0047617  19.1555 341.1433 14.81031058197944

Volg CZ-6A DEB in realtime met AllMySat

Download on the App Store